NAPEX1 KSFB-KMCO

Flight info

Callsign NAPEX1
Flight time 0h 12m
Altitude 6000
Route DCT ORL/N0273F050
Aircraft C25C/L-SG/L

Departure

Time 2026-04-25 01:54
Airport Orlando Sanford International Airport (KSFB)

Arrival

Time 2026-04-25 02:06
Airport Orlando International Airport (KMCO)
Time Latitude Longitude Altitude Speed Heading
2026-04-25 01:41 28.77534 -81.24762 57 ft 0 kts 56°
2026-04-25 01:47 28.77544 -81.24759 56 ft 5 kts 351°
2026-04-25 01:47 28.77552 -81.24766 55 ft 0 kts 306°
2026-04-25 01:48 28.77576 -81.24801 54 ft 14 kts 324°
2026-04-25 01:48 28.77673 -81.24761 55 ft 17 kts 25°
2026-04-25 01:48 28.77787 -81.24764 52 ft 20 kts 315°
2026-04-25 01:48 28.77899 -81.24895 50 ft 25 kts 314°
2026-04-25 01:49 28.78024 -81.25043 47 ft 21 kts 314°
2026-04-25 01:49 28.78065 -81.25192 48 ft 11 kts 271°
2026-04-25 01:49 28.78084 -81.25261 49 ft 7 kts 334°
2026-04-25 01:49 28.78086 -81.25262 49 ft 0 kts 335°
2026-04-25 01:52 28.78144 -81.25262 49 ft 16 kts 19°
2026-04-25 01:52 28.78173 -81.25184 48 ft 0 kts 89°
2026-04-25 01:53 28.78173 -81.25183 48 ft 4 kts 90°
2026-04-25 01:53 28.78166 -81.24669 87 ft 114 kts 94°
2026-04-25 01:53 28.78248 -81.23406 240 ft 200 kts 77°
2026-04-25 01:53 28.78716 -81.21707 575 ft 241 kts 73°
2026-04-25 01:54 28.79250 -81.19907 828 ft 244 kts 73°
2026-04-25 01:54 28.79772 -81.18035 1083 ft 251 kts 75°
2026-04-25 01:54 28.80339 -81.16126 1334 ft 256 kts 73°
2026-04-25 01:54 28.80935 -81.14205 1590 ft 258 kts 73°
2026-04-25 01:55 28.81545 -81.12273 1841 ft 259 kts 73°
2026-04-25 01:55 28.82148 -81.10356 2274 ft 254 kts 72°
2026-04-25 01:55 28.82622 -81.08448 2760 ft 248 kts 87°
2026-04-25 01:55 28.82091 -81.06634 3233 ft 246 kts 129°
2026-04-25 01:56 28.80662 -81.05611 3705 ft 248 kts 166°
2026-04-25 01:56 28.78932 -81.05750 3944 ft 259 kts 201°
2026-04-25 01:56 28.77523 -81.07052 3978 ft 270 kts 237°
2026-04-25 01:56 28.76893 -81.09080 3985 ft 276 kts 259°
2026-04-25 01:57 28.76275 -81.13386 3996 ft 260 kts 263°
2026-04-25 01:57 28.76051 -81.15260 3987 ft 220 kts 263°
2026-04-25 01:57 28.75849 -81.16949 3978 ft 223 kts 263°
2026-04-25 01:58 28.75631 -81.18797 3981 ft 246 kts 263°
2026-04-25 01:58 28.75401 -81.20752 3986 ft 243 kts 263°
2026-04-25 01:58 28.75180 -81.22599 3982 ft 228 kts 263°
2026-04-25 01:58 28.74976 -81.24360 3979 ft 220 kts 263°
2026-04-25 01:59 28.74770 -81.26073 3981 ft 218 kts 263°
2026-04-25 01:59 28.74572 -81.27784 3979 ft 217 kts 262°
2026-04-25 01:59 28.73918 -81.29293 3979 ft 218 kts 221°
2026-04-25 01:59 28.72585 -81.30118 3982 ft 219 kts 205°
2026-04-25 02:00 28.71198 -81.30832 3980 ft 219 kts 203°
2026-04-25 02:00 28.69791 -81.31510 3985 ft 219 kts 204°
2026-04-25 02:00 28.68330 -81.32212 3533 ft 236 kts 202°
2026-04-25 02:00 28.66763 -81.32819 3103 ft 237 kts 191°
2026-04-25 02:01 28.65167 -81.33031 3007 ft 224 kts 181°
2026-04-25 02:01 28.63638 -81.33024 2919 ft 219 kts 177°
2026-04-25 02:01 28.62128 -81.32950 2674 ft 222 kts 176°
2026-04-25 02:01 28.60579 -81.32922 2451 ft 222 kts 179°
2026-04-25 02:02 28.59111 -81.32914 2304 ft 202 kts 178°
2026-04-25 02:02 28.57721 -81.32915 2103 ft 194 kts 178°
2026-04-25 02:02 28.56388 -81.32935 2048 ft 186 kts 178°
2026-04-25 02:02 28.55113 -81.32962 1903 ft 188 kts 177°
2026-04-25 02:03 28.53805 -81.32955 1747 ft 185 kts 176°
2026-04-25 02:03 28.52541 -81.32938 1745 ft 179 kts 176°
2026-04-25 02:03 28.51483 -81.32917 1764 ft 132 kts 173°
2026-04-25 02:03 28.50589 -81.32864 1463 ft 131 kts 172°
2026-04-25 02:04 28.49680 -81.32807 1272 ft 129 kts 173°
2026-04-25 02:04 28.48791 -81.32769 1046 ft 130 kts 174°
2026-04-25 02:04 28.48191 -81.32755 929 ft 129 kts 174°
2026-04-25 02:04 28.47321 -81.32740 773 ft 122 kts 174°
2026-04-25 02:05 28.46456 -81.32706 573 ft 125 kts 175°
2026-04-25 02:05 28.45586 -81.32699 389 ft 125 kts 175°
2026-04-25 02:05 28.44438 -81.32694 146 ft 118 kts 174°
2026-04-25 02:05 28.43700 -81.32679 103 ft 93 kts 171°
2026-04-25 02:06 28.43315 -81.32665 103 ft 69 kts 179°
2026-04-25 02:06 28.43003 -81.32679 101 ft 35 kts 181°
2026-04-25 02:06 28.42911 -81.32770 101 ft 17 kts 267°
2026-04-25 02:06 28.42926 -81.32906 99 ft 18 kts 319°
2026-04-25 02:07 28.43001 -81.32971 102 ft 14 kts 274°
2026-04-25 02:07 28.42943 -81.33043 101 ft 14 kts 192°